User: anonymous   Login
Location: Caltech
(34.1382°N, 118.1253°W)
Time: 00:14:18
(UTC-07:00)
Language:

UOSAT-12 - Orbit

View from above orbital plane
View from above orbital plane
View from above satellite
View from above satellite

Ground track
Ground track

The orbit data is extracted from the following two-line orbital elements,

1 25693U 99021A   18115.81288809 -.00000066  00000-0  10731-4 0  9995
2 25693  64.5559 242.0952 0049371 271.3975  88.1475 14.80793978 26459
Epoch (UTC): 25 April 2018 19:30:33
Eccentricity: 0.0049371
inclination: 64.5559°
perigee height: 592 km
apogee height: 661 km
right ascension of ascending node: 242.0952°
argument of perigee: 271.3975°
revolutions per day: 14.80793978
mean anomaly at epoch: 88.1475°
orbit number at epoch: 2645

The dashed part of the orbit path shows where the satellite is in the earth's shadow,  

DLR